Date String (YYYY-MM-DD hh:mm:ss) UTC,Instrument flags,absolute air pressure of the measurement (hPa),sample flow rate (lpm),inlet stack bypass flow (lpm),air temperature of the measurement (°C),ambient temperature measured by the external sensor (°C),aerosol sample conditioner tube jacket temperature (°C),OPC LED temperature (°C),internal box temperature (°C),relative humidity of the measurement (%),span deviation,mass concentration of particles derived from Lorenz-Mie calculation of OPC scattering (μg/m³),mass concentration of particles derived from Lorenz-Mie calculation of OPC scattering (μg/m³),mass concentration of particles derived from Lorenz-Mie calculation of OPC scattering (μg/m³)
DateTimeUTC,F1_M11,P_M11,Q1_M11,Q2_M11,T1_M11,T2_M11,T3_M11,T4_M11,T5_M11,U1_M11,ZSPAN_M11,X2_M11,X0_M11,X1_M11
2023-12-17 10:00:00,SystemResetWarning,0829.8,4.99,000.00,023.1,021.8,000.0,031.5,024.3,6.8,0000.0,0000.49,0003.69,0000.32
2023-12-17 10:01:00,SystemResetWarning,0829.8,5.00,000.00,023.1,021.8,000.0,031.5,024.3,6.8,0000.0,0000.48,0003.65,0000.32
2023-12-17 10:02:00,SystemResetWarning,0829.8,4.99,000.00,023.1,021.8,000.0,031.5,024.2,6.8,0000.0,0000.47,0003.69,0000.32
2023-12-17 10:03:00,SystemResetWarning,0829.8,5.00,000.00,023.0,021.8,000.0,031.5,024.1,7.0,0000.0,0000.46,0003.71,0000.32
2023-12-17 10:04:00,SystemResetWarning,0829.8,5.00,000.00,023.0,021.7,000.0,031.4,024.1,7.0,0000.0,0000.44,0003.07,0000.31
2023-12-17 10:05:00,SystemResetWarning,0829.7,5.00,000.00,023.0,021.7,000.0,031.4,024.2,7.0,0000.0,0000.41,0002.70,0000.31
2023-12-17 10:06:00,SystemResetWarning,0829.8,5.00,000.00,023.0,021.7,000.0,031.4,024.2,6.9,0000.0,0000.40,0002.69,0000.31
2023-12-17 10:07:00,SystemResetWarning,0829.8,5.00,000.00,023.0,021.7,000.0,031.4,024.1,7.1,0000.0,0000.40,0002.88,0000.31
2023-12-17 10:08:00,SystemResetWarning,0829.8,5.00,000.00,023.0,021.7,000.0,031.4,024.1,7.0,0000.0,0000.38,0002.78,0000.30
2023-12-17 10:09:00,SystemResetWarning,0829.7,5.00,000.00,023.0,021.6,000.0,031.4,024.1,7.0,0000.0,0000.40,0002.78,0000.30
2023-12-17 10:10:00,SystemResetWarning,0829.8,5.00,000.00,022.9,021.6,000.0,031.3,024.1,6.9,0000.0,0000.40,0001.95,0000.30
2023-12-17 10:11:00,SystemResetWarning,0829.7,5.00,000.00,022.9,021.6,000.0,031.3,024.1,7.0,0000.0,0000.39,0000.89,0000.30
2023-12-17 10:12:00,SystemResetWarning,0829.7,5.00,000.00,022.9,021.6,000.0,031.3,024.1,7.1,0000.0,0000.39,0001.11,0000.30
2023-12-17 10:13:00,SystemResetWarning,0829.7,4.99,000.00,022.9,021.6,000.0,031.3,024.0,7.0,0000.0,0000.39,0001.96,0000.29
2023-12-17 10:14:00,SystemResetWarning,0829.7,5.00,000.00,022.9,021.6,000.0,031.3,024.0,6.8,0000.0,0000.38,0001.92,0000.29
2023-12-17 10:15:00,SystemResetWarning,0829.7,4.99,000.00,022.8,021.5,000.0,031.3,023.9,6.9,0000.0,0000.38,0001.92,0000.29
2023-12-17 10:16:00,SystemResetWarning,0829.7,5.00,000.00,022.8,021.5,000.0,031.2,023.9,7.0,0000.0,0000.39,0001.94,0000.28
2023-12-17 10:17:00,SystemResetWarning,0829.6,5.00,000.00,022.8,021.5,000.0,031.2,024.0,6.9,0000.0,0000.38,0001.94,0000.28
2023-12-17 10:18:00,SystemResetWarning,0829.6,5.00,000.00,022.8,021.5,000.0,031.2,024.0,7.0,0000.0,0000.40,0001.87,0000.28
2023-12-17 10:19:00,SystemResetWarning,0829.7,5.00,000.00,022.8,021.5,000.0,031.2,024.0,6.9,0000.0,0000.41,0001.86,0000.28
2023-12-17 10:20:00,SystemResetWarning,0829.6,5.00,000.00,022.8,021.5,000.0,031.2,024.0,7.1,0000.0,0000.42,0001.91,0000.28
2023-12-17 10:21:00,SystemResetWarning,0829.6,5.00,000.00,022.8,021.4,000.0,031.2,023.9,6.9,0000.0,0000.42,0001.93,0000.28
2023-12-17 10:22:00,SystemResetWarning,0829.6,5.00,000.00,022.8,021.4,000.0,031.2,024.0,7.0,0000.0,0000.43,0001.94,0000.28
2023-12-17 10:23:00,SystemResetWarning,0829.6,5.00,000.00,022.8,021.4,000.0,031.1,024.0,6.9,0000.0,0000.42,0001.67,0000.28
2023-12-17 10:24:00,SystemResetWarning,0829.4,5.00,000.00,022.8,021.4,000.0,031.1,023.9,7.0,0000.0,0000.42,0000.78,0000.28
2023-12-17 10:25:00,SystemResetWarning,0829.4,5.00,000.00,022.7,021.4,000.0,031.1,023.9,6.9,0000.0,0000.45,0000.82,0000.28
2023-12-17 10:26:00,SystemResetWarning,0829.4,5.00,000.00,022.7,021.3,000.0,031.1,023.9,7.0,0000.0,0000.47,0000.86,0000.29
2023-12-17 10:27:00,SystemResetWarning,0829.4,5.00,000.00,022.7,021.3,000.0,031.1,023.9,7.0,0000.0,0000.48,0000.98,0000.29
2023-12-17 10:28:00,SystemResetWarning,0829.3,5.00,000.00,022.7,021.3,000.0,031.1,023.9,7.0,0000.0,0000.50,0001.46,0000.29
2023-12-17 10:29:00,SystemResetWarning,0829.3,5.00,000.00,022.7,021.3,000.0,031.0,023.9,7.0,0000.0,0000.46,0001.30,0000.29
2023-12-17 10:30:00,SystemResetWarning,0829.3,5.00,000.00,022.7,021.3,000.0,031.0,023.9,7.0,0000.0,0000.48,0001.34,0000.29
2023-12-17 10:31:00,SystemResetWarning,0829.3,5.00,000.00,022.7,021.3,000.0,031.0,023.8,7.0,0000.0,0000.45,0001.26,0000.29
2023-12-17 10:32:00,SystemResetWarning,0829.3,5.00,000.00,022.6,021.2,000.0,031.0,023.8,7.0,0000.0,0000.45,0001.26,0000.30
2023-12-17 10:33:00,SystemResetWarning,0829.4,5.00,000.00,022.6,021.2,000.0,031.0,023.8,7.0,0000.0,0000.46,0001.29,0000.30
2023-12-17 10:34:00,SystemResetWarning,0829.4,5.01,000.00,022.6,021.2,000.0,031.0,023.8,7.1,0000.0,0000.49,0001.37,0000.30
2023-12-17 10:35:00,SystemResetWarning,0829.4,5.01,000.00,022.6,021.2,000.0,031.0,023.8,7.0,0000.0,0000.50,0001.41,0000.31
2023-12-17 10:36:00,SystemResetWarning,0829.6,5.01,000.00,022.6,021.2,000.0,030.9,023.8,7.0,0000.0,0000.51,0001.47,0000.31
2023-12-17 10:37:00,SystemResetWarning,0829.7,5.00,000.00,022.6,021.2,000.0,030.9,023.8,7.1,0000.0,0000.48,0001.51,0000.31
2023-12-17 10:38:00,SystemResetWarning,0829.8,5.00,000.00,022.6,021.2,000.0,030.9,023.7,7.2,0000.0,0000.48,0001.40,0000.31
2023-12-17 10:39:00,SystemResetWarning,0829.8,5.00,000.00,022.6,021.2,000.0,030.9,023.7,7.1,0000.0,0000.46,0000.89,0000.31
2023-12-17 10:40:00,SystemResetWarning,0829.9,5.00,000.00,022.5,021.2,000.0,030.9,023.7,7.1,0000.0,0000.49,0000.94,0000.31
2023-12-17 10:41:00,SystemResetWarning,0830.1,5.00,000.00,022.5,021.2,000.0,030.9,023.7,7.0,0000.0,0000.48,0000.92,0000.32
2023-12-17 10:42:00,SystemResetWarning,0830.1,5.00,000.00,022.5,021.2,000.0,030.9,023.7,7.1,0000.0,0000.49,0000.93,0000.32
2023-12-17 10:43:00,SystemResetWarning,0830.2,5.01,000.00,022.5,021.3,000.0,030.9,023.8,7.1,0000.0,0000.49,0000.93,0000.32
2023-12-17 10:44:00,SystemResetWarning,0830.2,5.00,000.00,022.5,021.3,000.0,030.9,023.8,7.1,0000.0,0000.48,0000.92,0000.31
2023-12-17 10:45:00,SystemResetWarning,0830.3,4.99,000.00,022.5,021.4,000.0,030.9,023.9,7.2,0000.0,0000.46,0000.86,0000.31
2023-12-17 10:46:00,SystemResetWarning,0830.2,4.99,000.00,022.5,021.4,000.0,030.9,023.9,7.3,0000.0,0000.47,0000.86,0000.31
2023-12-17 10:47:00,SystemResetWarning,0830.3,5.00,000.00,022.5,021.5,000.0,030.9,023.9,7.3,0000.0,0000.44,0000.79,0000.31
2023-12-17 10:48:00,SystemResetWarning,0830.3,5.00,000.00,022.5,021.5,000.0,030.9,023.9,7.2,0000.0,0000.43,0000.67,0000.31
2023-12-17 10:49:00,SystemResetWarning,0830.2,5.00,000.00,022.6,021.5,000.0,030.9,024.0,7.2,0000.0,0000.42,0000.74,0000.31
2023-12-17 10:50:00,SystemResetWarning,0830.2,5.00,000.00,022.6,021.6,000.0,030.9,024.0,7.1,0000.0,0000.43,0002.05,0000.32
2023-12-17 10:51:00,SystemResetWarning,0830.2,5.00,000.00,022.6,021.5,000.0,030.9,023.9,7.1,0000.0,0000.41,0002.02,0000.31
2023-12-17 10:52:00,SystemResetWarning,0830.2,5.00,000.00,022.6,021.5,000.0,030.9,023.9,7.1,0000.0,0000.40,0002.00,0000.31
2023-12-17 10:53:00,SystemResetWarning,0830.2,5.00,000.00,022.6,021.5,000.0,030.9,023.9,7.1,0000.0,0000.38,0001.97,0000.31
2023-12-17 10:54:00,SystemResetWarning,0830.2,5.00,000.00,022.6,021.5,000.0,030.9,023.9,7.1,0000.0,0000.39,0002.06,0000.31
2023-12-17 10:55:00,SystemResetWarning,0830.2,5.00,000.00,022.6,021.5,000.0,030.9,023.9,7.1,0000.0,0000.40,0002.09,0000.31
2023-12-17 10:56:00,SystemResetWarning,0830.2,5.00,000.00,022.6,021.5,000.0,030.9,023.9,7.1,0000.0,0000.41,0002.11,0000.31
2023-12-17 10:57:00,SystemResetWarning,0830.2,5.00,000.00,022.6,021.5,000.0,030.9,023.9,7.1,0000.0,0000.42,0002.14,0000.31
2023-12-17 10:58:00,SystemResetWarning,0830.1,5.00,000.00,022.6,021.6,000.0,030.9,023.9,7.0,0000.0,0000.42,0002.15,0000.31
2023-12-17 10:59:00,SystemResetWarning,0830.1,5.01,000.00,022.6,021.6,000.0,030.9,024.0,7.0,0000.0,0000.44,0002.38,0000.32
